CW5917 Weather Reports


time (UTC)temp
F
wind
direction
speed
knots
gust
knots
rain 1hr
in
rain 24hr
in
rain mn
in
humidity
%
barometer
mb
20260906145533 72 82 2.6 5.2 0.00 0.00 0.00 85 1021.1
20260906145017 72 104 1.7 5.2 0.00 0.00 0.00 87 1021.2
20260906144525 72 93 2.6 5.2 0.00 0.00 0.00 85 1021.3
20260906144020 72 109 1.7 4.3 0.00 0.00 0.00 87 1021.1
20260906143531 72 109 1.7 6.1 0.00 0.00 0.00 86 1021.1
20260906143032 72 97 3.5 6.1 0.00 0.00 0.00 86 1021.1
20260906142517 71 59 1.7 6.1 0.00 0.00 0.00 86 1021.0
20260906142032 71 84 3.5 7.0 0.00 0.00 0.00 86 1021.0
20260906141519 71 114 3.5 6.1 0.00 0.00 0.00 87 1021.0
20260906141035 71 67 1.7 6.1 0.00 0.00 0.00 87 1021.1
20260906140518 70 92 1.7 6.1 0.00 0.00 0.00 88 1021.1
20260906140024 70 103 3.5 6.1 0.00 0.00 0.00 89 1021.1
20260906135519 69 88 3.5 5.2 0.00 0.00 0.00 90 1021.2
20260906135034 69 54 3.5 5.2 0.00 0.00 0.00 91 1021.1
20260906134544 68 90 1.7 3.5 0.00 0.00 0.00 92 1021.1
20260906134017 68 95 1.7 5.2 0.00 0.00 0.00 92 1021.1
20260906133519 67 107 2.6 5.2 0.00 0.00 0.00 93 1021.0
20260906133027 67 59 1.7 4.3 0.00 0.00 0.00 94 1021.0
20260906132524 66 42 1.7 5.2 0.00 0.00 0.00 94 1021.0
20260906132018 66 58 1.7 5.2 0.00 0.00 0.00 94 1021.0
20260906131518 66 44 2.6 5.2 0.00 0.00 0.00 95 1021.0
20260906131029 65 68 1.7 3.5 0.00 0.00 0.00 95 1021.1
20260906130525 65 68 1.7 4.3 0.00 0.00 0.00 95 1021.1
20260906130048 64 48 1.7 5.2 0.00 0.00 0.00 95 1021.1
20260906125521 64 40 0.9 4.3 0.00 0.00 0.00 95 1021.0
20260906125037 64 40 2.6 4.3 0.00 0.00 0.00 95 1021.0
20260906124518 64 23 1.7 4.3 0.00 0.00 0.00 95 1021.0
20260906124031 63 355 1.7 4.3 0.00 0.00 0.00 95 1021.0
20260906123536 63 45 1.7 4.3 0.00 0.00 0.00 95 1020.9
20260906123048 63 45 2.6 3.5 0.00 0.00 0.00 95 1020.8
20260906122524 62 45 0.9 2.6 0.00 0.00 0.00 95 1020.7
20260906122022 62 45 1.7 4.3 0.00 0.00 0.00 95 1020.7
20260906121537 62 45 1.7 4.3 0.00 0.00 0.00 95 1020.7
20260906121033 62 34 1.7 3.5 0.00 0.00 0.00 95 1020.6
20260906120530 62 355 0.0 3.5 0.00 0.00 0.00 95 1020.6
20260906120020 62 355 1.7 3.5 0.00 0.00 0.00 95 1020.6
20260906115535 62 342 0.9 2.6 0.00 0.00 0.00 95 1020.6
20260906115020 62 342 1.7 2.6 0.00 0.00 0.00 94 1020.5
20260906114535 62 342 1.7 2.6 0.00 0.00 0.00 95 1020.5
20260906114033 62 342 0.9 2.6 0.00 0.00 0.00 95 1020.5
20260906113517 62 342 0.9 3.5 0.00 0.00 0.00 95 1020.5
20260906113028 62 355 1.7 3.5 0.00 0.00 0.00 95 1020.4
20260906112524 62 25 1.7 3.5 0.00 0.00 0.00 94 1020.2
20260906112019 62 25 0.0 0.0 0.00 0.00 0.00 94 1020.0
20260906111536 62 25 0.0 0.0 0.00 0.00 0.00 94 1019.8
20260906111050 63 25 0.0 1.7 0.00 0.00 0.00 94 1019.8
20260906110523 63 25 0.9 1.7 0.00 0.00 0.00 94 1019.7
20260906110046 62 25 0.0 3.5 0.00 0.00 0.00 94 1019.6
20260906105556 62 25 0.9 3.5 0.00 0.00 0.00 94 1019.6
20260906105030 62 25 0.0 3.5 0.00 0.00 0.00 94 1019.5
20260906104533 62 25 1.7 2.6 0.00 0.00 0.00 94 1019.6
20260906104028 62 25 0.9 2.6 0.00 0.00 0.00 94 1019.6
20260906103541 62 25 1.7 2.6 0.00 0.00 0.00 94 1019.7
20260906103018 62 25 0.0 0.9 0.00 0.00 0.00 94 1019.7
20260906102532 63 25 0.0 0.0 0.00 0.00 0.00 94 1019.7
20260906102035 63 25 0.0 0.0 0.00 0.00 0.00 94 1019.6
20260906101546 63 25 0.0 2.6 0.00 0.00 0.00 94 1019.5
20260906101022 63 25 0.0 2.6 0.00 0.00 0.00 94 1019.4
20260906100537 63 25 0.0 0.0 0.00 0.00 0.00 94 1019.3
20260906100030 63 25 0.0 1.7 0.00 0.01 0.00 94 1019.3
20260906095536 63 25 0.0 3.5 0.00 0.01 0.00 94 1019.4
20260906095051 63 25 1.7 3.5 0.00 0.01 0.00 94 1019.4
20260906094519 63 25 1.7 4.3 0.00 0.01 0.00 94 1019.4
20260906094032 63 25 1.7 4.3 0.00 0.01 0.00 94 1019.5
20260906093522 63 36 2.6 4.3 0.00 0.01 0.00 94 1019.6
20260906093031 64 110 0.9 2.6 0.00 0.01 0.00 94 1019.6
20260906092536 64 110 0.9 3.5 0.00 0.01 0.00 94 1019.7
20260906092018 64 110 1.7 3.5 0.00 0.01 0.00 94 1019.7
20260906091538 64 110 0.9 3.5 0.00 0.01 0.00 94 1019.7
20260906091048 64 110 1.7 3.5 0.00 0.01 0.00 94 1019.4
20260906090521 64 110 1.7 2.6 0.00 0.01 0.00 94 1019.4
20260906090033 64 110 1.7 2.6 0.00 0.01 0.00 94 1019.2
20260906085529 64 110 0.9 2.6 0.00 0.01 0.00 93 1019.3
20260906085023 64 110 0.9 3.5 0.00 0.01 0.00 93 1019.3
20260906084527 64 110 1.7 3.5 0.00 0.01 0.00 93 1019.3
20260906084020 64 110 1.7 3.5 0.00 0.01 0.00 93 1019.3
20260906083536 64 110 0.9 3.5 0.00 0.01 0.00 94 1019.4
20260906083034 63 110 0.9 3.5 0.00 0.01 0.00 93 1019.4
20260906082532 63 110 1.7 3.5 0.00 0.01 0.00 93 1019.2
20260906082025 63 110 1.7 3.5 0.00 0.01 0.00 93 1019.0
20260906081530 63 110 1.7 3.5 0.00 0.01 0.00 92 1019.2
20260906081023 63 110 0.9 2.6 0.00 0.01 0.00 92 1019.1
20260906080520 63 110 0.9 2.6 0.00 0.01 0.00 92 1019.1
20260906080029 63 110 0.9 1.7 0.00 0.01 0.00 92 1019.0
20260906075525 63 110 0.0 0.9 0.00 0.01 0.00 92 1019.1
20260906075018 63 110 0.0 1.7 0.00 0.01 0.00 92 1019.0
20260906074532 64 110 0.9 1.7 0.00 0.01 0.00 92 1019.1
20260906074047 64 110 0.0 0.0 0.00 0.01 0.00 92 1019.2
20260906073542 64 110 0.0 0.0 0.00 0.01 0.00 92 1019.1
20260906073022 64 110 0.0 0.0 0.00 0.01 0.00 92 1019.1
20260906072517 64 110 0.0 0.9 0.00 0.01 0.00 92 1019.3
20260906072038 64 110 0.0 0.9 0.00 0.01 0.00 92 1019.2
20260906071535 64 110 0.0 0.9 0.00 0.01 0.00 92 1019.2
20260906071030 64 110 0.0 1.7 0.00 0.01 0.00 92 1019.2
20260906070527 64 110 0.0 2.6 0.00 0.01 0.00 92 1019.4
20260906070032 64 110 1.7 2.6 0.00 0.01 0.00 92 1019.4
20260906065540 65 110 0.9 2.6 0.00 0.01 0.00 92 1019.4
20260906065035 65 110 1.7 2.6 0.00 0.01 0.00 92 1019.4
20260906064524 65 110 1.7 2.6 0.00 0.01 0.00 92 1019.4
20260906064020 65 110 0.9 2.6 0.00 0.01 0.00 92 1019.4
20260906063537 65 110 1.7 2.6 0.00 0.01 0.00 92 1019.6
20260906063052 65 110 0.9 3.5 0.00 0.01 0.00 92 1019.4
20260906062517 65 110 0.0 1.7 0.00 0.01 0.00 92 1019.5
20260906062033 65 110 0.0 0.0 0.00 0.01 0.00 92 1019.4
20260906061532 65 110 0.0 0.0 0.00 0.01 0.00 92 1019.5
20260906061057 66 110 0.0 1.7 0.00 0.01 0.00 92 1019.5
20260906060523 66 110 0.0 1.7 0.00 0.01 0.00 92 1019.5
20260906060018 66 110 0.0 0.9 0.00 0.01 0.00 92 1019.5
20260906055537 66 110 0.0 0.9 0.00 0.01 0.00 92 1019.5
20260906055030 66 110 0.0 0.9 0.00 0.01 0.00 92 1019.5
20260906054530 66 110 0.0 0.9 0.00 0.01 0.00 91 1019.5
20260906054023 66 110 0.0 1.7 0.00 0.01 0.00 91 1019.3
20260906053534 66 110 0.0 1.7 0.00 0.01 0.00 92 1019.3
20260906053032 67 110 0.9 2.6 0.00 0.01 0.00 92 1019.4
20260906052519 67 110 0.9 2.6 0.00 0.01 0.00 91 1019.3
20260906052034 67 110 0.0 2.6 0.00 0.01 0.00 91 1019.3
20260906051554 67 110 0.0 2.6 0.00 0.01 0.00 91 1019.4
20260906051029 67 110 1.7 3.5 0.00 0.01 0.00 91 1019.3
20260906050521 67 110 1.7 3.5 0.00 0.01 0.00 91 1019.2
20260906050025 67 110 0.9 2.6 0.00 0.01 0.01 91 1019.2
20260906045520 67 110 0.9 3.5 0.00 0.01 0.01 91 1019.1
20260906045035 67 110 1.7 3.5 0.00 0.01 0.01 91 1019.1
20260906044534 67 110 1.7 2.6 0.00 0.01 0.01 91 1019.1
20260906044028 68 110 1.7 2.6 0.00 0.01 0.01 90 1019.1
20260906043518 68 110 0.9 2.6 0.00 0.01 0.01 91 1019.0
20260906043036 68 110 0.9 2.6 0.00 0.01 0.01 91 1019.1
20260906042533 68 110 1.7 2.6 0.00 0.01 0.01 90 1019.1
20260906042018 68 110 1.7 2.6 0.00 0.01 0.01 90 1019.0
20260906041536 68 110 0.9 2.6 0.00 0.01 0.01 90 1018.9
20260906041026 69 110 0.9 2.6 0.00 0.01 0.01 90 1019.0
20260906040521 69 110 0.0 2.6 0.00 0.01 0.01 90 1019.0
20260906040019 69 110 0.9 3.5 0.00 0.01 0.01 90 1018.8
20260906035531 69 110 0.0 3.5 0.00 0.01 0.01 90 1018.6
20260906035044 69 110 0.9 6.1 0.00 0.01 0.01 90 1018.6
20260906034521 69 104 2.6 6.1 0.00 0.01 0.01 90 1018.6
20260906034031 69 113 2.6 5.2 0.00 0.01 0.01 90 1018.7
20260906033540 69 75 2.6 5.2 0.00 0.01 0.01 89 1018.8
20260906033026 70 117 1.7 5.2 0.00 0.01 0.01 89 1018.8
20260906032524 70 48 2.6 7.0 0.00 0.01 0.01 89 1018.9
20260906032036 70 86 2.6 7.8 0.00 0.01 0.01 89 1018.8
20260906031530 70 92 3.5 7.8 0.00 0.01 0.01 89 1018.8
20260906031024 70 65 3.5 7.0 0.00 0.01 0.01 89 1018.6
20260906030520 70 86 1.7 5.2 0.00 0.01 0.01 89 1018.7
20260906030032 70 69 2.6 6.1 0.00 0.01 0.01 89 1018.6
20260906025530 70 107 3.5 6.1 0.00 0.01 0.01 89 1018.6
20260906025039 71 107 2.6 5.2 0.00 0.01 0.01 89 1018.5
20260906024516 71 98 2.6 5.2 0.00 0.01 0.01 88 1018.4
20260906024031 71 116 2.6 8.7 0.00 0.01 0.01 88 1018.4
20260906023542 71 118 3.5 8.7 0.00 0.01 0.01 88 1018.1
20260906023020 71 72 2.6 6.1 0.00 0.01 0.01 88 1018.1
20260906022531 72 96 2.6 9.6 0.00 0.01 0.01 87 1018.1
20260906022037 72 69 2.6 9.6 0.00 0.01 0.01 87 1018.0
20260906021523 72 59 4.3 9.6 0.00 0.01 0.01 87 1018.0
20260906021021 72 123 2.6 9.6 0.00 0.01 0.01 87 1017.9
20260906020535 72 102 3.5 10.4 0.00 0.01 0.01 87 1017.7
20260906020045 72 93 5.2 10.4 0.00 0.01 0.01 88 1017.7
20260906015534 72 91 1.7 9.6 0.00 0.01 0.01 88 1017.5
20260906015038 73 103 4.3 9.6 0.00 0.01 0.01 88 1017.2
20260906014535 73 75 3.5 6.1 0.00 0.01 0.01 88 1017.2
20260906014029 73 76 2.6 6.1 0.00 0.01 0.01 88 1017.1
20260906013523 73 92 2.6 6.1 0.00 0.01 0.01 88 1017.0
20260906013048 73 78 1.7 7.8 0.00 0.01 0.01 88 1017.0
20260906012524 73 44 1.7 7.8 0.00 0.01 0.01 87 1017.0
20260906012039 73 57 3.5 5.2 0.00 0.01 0.01 87 1016.9
20260906011539 73 65 2.6 5.2 0.00 0.01 0.01 87 1016.9
20260906011034 73 75 1.7 7.0 0.00 0.01 0.01 86 1017.0
20260906010525 73 51 2.6 5.2 0.00 0.01 0.01 86 1017.1
20260906010032 73 63 1.7 6.1 0.00 0.01 0.01 86 1017.2
20260906005529 73 63 2.6 6.1 0.00 0.01 0.01 86 1017.3
20260906005023 73 78 3.5 6.1 0.00 0.01 0.01 86 1017.3
20260906004555 73 19 1.7 4.3 0.00 0.01 0.01 87 1017.3
20260906004025 73 74 1.7 5.2 0.00 0.01 0.01 87 1017.5
20260906003521 73 53 2.6 4.3 0.00 0.01 0.01 87 1017.3
20260906003028 73 30 0.9 2.6 0.00 0.01 0.01 87 1017.2
20260906002524 73 30 0.9 3.5 0.00 0.01 0.01 86 1017.3
20260906002039 74 30 0.9 4.3 0.00 0.01 0.01 85 1017.3
20260906001533 74 30 1.7 4.3 0.00 0.01 0.01 85 1017.3
20260906001027 74 59 1.7 5.2 0.00 0.01 0.01 85 1017.2
20260906000520 75 22 2.6 6.1 0.00 0.01 0.01 84 1017.3
20260906000028 75 51 2.6 5.2 0.00 0.01 0.01 84 1017.2
20260905235521 75 24 2.6 5.2 0.00 0.01 0.01 83 1017.2
20260905235031 75 44 3.5 6.1 0.00 0.01 0.01 82 1017.2
20260905234519 75 74 2.6 7.0 0.00 0.01 0.01 82 1017.3
20260905234035 76 46 3.5 8.7 0.00 0.01 0.01 81 1017.2
20260905233519 76 41 3.5 6.1 0.00 0.01 0.01 79 1017.3
20260905232530 77 55 1.7 8.7 0.00 0.01 0.01 78 1017.4
20260905232020 77 44 3.5 7.8 0.00 0.01 0.01 79 1017.3
20260905231538 78 59 3.5 7.0 0.00 0.01 0.01 78 1017.3
20260905231033 78 22 3.5 7.0 0.00 0.01 0.01 77 1017.3
20260905230530 78 35 3.5 11.3 0.00 0.01 0.01 77 1017.3
20260905230030 78 61 3.5 11.3 0.00 0.01 0.01 77 1017.2
20260905225522 78 47 3.5 6.1 0.00 0.01 0.01 77 1017.2
20260905225018 78 67 1.7 5.2 0.00 0.01 0.01 79 1017.3
20260905224556 78 44 3.5 5.2 0.00 0.01 0.01 79 1017.3
20260905224048 77 38 1.7 7.8 0.00 0.01 0.01 80 1017.4
20260905223525 77 38 3.5 7.8 0.00 0.01 0.01 79 1017.4
20260905223038 77 40 3.5 10.4 0.00 0.01 0.01 78 1017.3
20260905222533 78 15 4.3 11.3 0.00 0.01 0.01 76 1017.3
20260905222017 78 87 7.0 13.9 0.00 0.01 0.01 75 1017.3
20260905221528 79 40 7.0 13.9 0.00 0.01 0.01 75 1017.3
20260905221022 79 48 4.3 10.4 0.00 0.01 0.01 77 1017.1
20260905220532 79 88 4.3 10.4 0.00 0.01 0.01 76 1016.9
20260905220031 79 53 6.1 8.7 0.00 0.01 0.01 77 1016.9
20260905215554 79 17 3.5 8.7 0.00 0.01 0.01 76 1016.8
20260905215025 79 40 4.3 10.4 0.00 0.01 0.01 78 1016.9
20260905214541 79 13 4.3 10.4 0.00 0.01 0.01 77 1017.0
20260905214020 79 330 4.3 8.7 0.00 0.01 0.01 77 1017.1
20260905213533 79 34 3.5 8.7 0.00 0.01 0.01 77 1017.0
20260905213050 78 313 3.5 7.0 0.00 0.01 0.01 77 1017.0
20260905212525 78 302 4.3 7.0 0.00 0.01 0.01 76 1017.1
20260905212021 79 10 4.3 7.8 0.00 0.01 0.01 75 1017.0
20260905211520 79 334 4.3 7.8 0.00 0.01 0.01 77 1017.2
20260905211029 79 17 3.5 7.8 0.00 0.01 0.01 76 1017.1
20260905210544 79 327 4.3 7.8 0.00 0.01 0.01 76 1017.1
20260905210029 78 350 4.3 7.8 0.00 0.01 0.01 76 1017.2
20260905205545 78 348 2.6 8.7 0.00 0.01 0.01 76 1017.2
20260905205017 79 5 5.2 8.7 0.00 0.01 0.01 75 1017.4
20260905204537 79 325 4.3 7.8 0.00 0.01 0.01 74 1017.3
20260905204048 79 360 3.5 7.8 0.00 0.01 0.01 75 1017.2
20260905203524 78 326 5.2 7.8 0.00 0.01 0.01 75 1017.3
20260905203050 78 22 3.5 7.0 0.00 0.01 0.01 75 1017.4
20260905202541 78 34 4.3 7.0 0.00 0.01 0.01 75 1017.3
20260905202036 79 355 3.5 12.2 0.00 0.01 0.01 75 1017.4
20260905201534 79 32 3.5 12.2 0.00 0.01 0.01 75 1017.2
20260905201029 79 113 6.1 10.4 0.00 0.01 0.01 73 1017.2
20260905200525 79 21 6.1 10.4 0.00 0.01 0.01 74 1017.1
20260905200016 80 46 2.6 11.3 0.00 0.01 0.01 75 1017.1
20260905195532 80 43 5.2 11.3 0.00 0.01 0.01 76 1017.2
20260905195016 80 40 5.2 10.4 0.00 0.01 0.01 79 1017.1
20260905194527 79 360 3.5 12.2 0.00 0.01 0.01 78 1017.1
20260905194022 80 63 7.0 12.2 0.00 0.01 0.01 78 1017.2
20260905193553 79 52 6.1 12.2 0.00 0.01 0.01 79 1017.3
20260905193029 79 24 6.1 12.2 0.00 0.01 0.01 79 1017.3
20260905192524 78 333 5.2 13.0 0.00 0.01 0.01 81 1017.2
20260905192039 78 10 6.1 12.2 0.00 0.01 0.01 81 1017.2
20260905191535 78 63 7.8 12.2 0.00 0.01 0.01 81 1017.3
20260905191031 78 15 7.0 10.4 0.00 0.01 0.01 80 1017.3
20260905190523 78 355 5.2 10.4 0.00 0.01 0.01 80 1017.3
20260905190037 78 36 4.3 11.3 0.00 0.01 0.01 80 1017.3
20260905185530 79 39 6.1 11.3 0.00 0.01 0.01 78 1017.3
20260905185023 80 338 3.5 9.6 0.00 0.01 0.01 79 1017.3
20260905184520 79 11 3.5 8.7 0.00 0.01 0.01 80 1017.2
20260905184017 79 326 4.3 10.4 0.00 0.01 0.01 81 1017.3
20260905183538 78 44 6.1 10.4 0.00 0.01 0.01 81 1017.4
20260905183035 78 46 2.6 7.8 0.00 0.01 0.01 80 1017.3
20260905182521 78 28 4.3 9.6 0.00 0.01 0.01 81 1017.5
20260905182055 78 40 5.2 9.6 0.00 0.01 0.01 82 1017.5
20260905181538 77 35 3.5 7.8 0.00 0.01 0.01 85 1017.5
20260905181048 76 42 2.6 7.8 0.00 0.01 0.01 86 1017.5
20260905180543 76 36 4.3 7.8 0.00 0.01 0.01 86 1017.7
20260905180021 76 360 2.6 10.4 0.00 0.01 0.01 86 1017.9
20260905175551 75 5 6.1 10.4 0.00 0.01 0.01 86 1017.9
20260905175017 75 15 3.5 7.0 0.00 0.01 0.01 86 1017.7
20260905174547 76 67 0.9 5.2 0.00 0.01 0.01 86 1017.9
20260905174026 75 67 1.7 5.2 0.00 0.01 0.01 87 1017.9
20260905173518 75 66 1.7 7.0 0.00 0.01 0.01 87 1017.8
20260905173020 75 35 1.7 7.8 0.00 0.01 0.01 87 1017.8
20260905172534 75 350 4.3 7.8 0.00 0.01 0.01 86 1017.8
20260905172031 75 28 3.5 8.7 0.00 0.01 0.01 87 1017.7
20260905171539 75 24 5.2 8.7 0.00 0.01 0.01 87 1017.8
20260905171052 75 9 4.3 7.8 0.00 0.01 0.01 87 1017.8
20260905170523 74 23 3.5 7.8 0.00 0.01 0.01 88 1017.7
20260905170024 74 5 3.5 9.6 0.00 0.01 0.01 89 1017.7
20260905165520 74 22 3.5 9.6 0.00 0.01 0.01 90 1017.7
20260905165017 73 46 3.5 10.4 0.00 0.01 0.01 90 1017.8
20260905164521 73 49 5.2 10.4 0.00 0.01 0.01 91 1017.8
20260905164036 73 5 5.2 8.7 0.00 0.01 0.01 91 1017.8
20260905163518 73 46 2.6 7.8 0.00 0.01 0.01 91 1017.8
20260905163028 73 57 4.3 8.7 0.00 0.01 0.01 91 1017.9
20260905162522 73 62 3.5 9.6 0.00 0.01 0.01 92 1018.0
20260905162017 73 50 7.0 9.6 0.00 0.01 0.01 92 1018.0
20260905161520 73 30 4.3 9.6 0.00 0.01 0.01 93 1018.1
20260905161016 73 42 5.2 10.4 0.00 0.01 0.01 93 1018.0
20260905160533 73 49 4.3 10.4 0.00 0.01 0.01 93 1017.8
20260905160029 73 360 3.5 8.7 0.00 0.02 0.01 94 1017.8
20260905155525 73 42 6.1 8.7 0.00 0.02 0.01 94 1017.8
20260905155056 73 41 6.1 8.7 0.00 0.02 0.01 94 1017.7
20260905154530 73 69 2.6 6.1 0.00 0.02 0.01 95 1017.7
20260905154022 73 27 1.7 7.0 0.00 0.02 0.01 95 1017.6
20260905153539 72 34 3.5 7.8 0.00 0.02 0.01 95 1017.6
20260905153038 72 37 2.6 7.8 0.00 0.02 0.01 95 1017.6
20260905152519 72 50 1.7 7.8 0.00 0.02 0.01 95 1017.6
20260905152035 72 52 3.5 7.8 0.00 0.02 0.01 95 1017.6
20260905151533 72 74 1.7 7.8 0.00 0.02 0.01 96 1017.6
20260905150523 72 84 2.6 7.8 0.00 0.02 0.01 96 1017.4
20260905150037 72 26 2.6 7.8 0.00 0.02 0.01 95 1017.4